When you browse on this site, cookies collect data to enhance your experience and personalize the content and advertising you see.
Visit our Privacy Policy to learn more. By continuing to use the site, you agree to this use of cookies and data.
  • In Hungary
  • List of Countries
  • For 7 days
  • Water Temperature
  • Satellite Maps
  • Weather Map
  • News
  • Weather Widgets
  • user-avatar
    Login

    Hourly Weather Krotoszyn

    Today, 19 December, Wednesday

    Time Temperature Precipitation Wind Pressure Humidity
    00:00 -1°C° 0 mm 3 mps 762 mmHg 93%
    01:00 -1°C° 0 mm 3 mps 762 mmHg 92%
    02:00 -1°C° 0 mm 3 mps 762 mmHg 91%
    03:00 -1°C° 0 mm 3 mps 761 mmHg 90%
    04:00 -2°C° 0 mm 4 mps 761 mmHg 89%
    05:00 -3°C° 0 mm 4 mps 761 mmHg 90%
    06:00 -3°C° 0 mm 4 mps 761 mmHg 90%
    07:00 -4°C° 0 mm 4 mps 761 mmHg 90%
    08:00 -4°C° 0 mm 4 mps 761 mmHg 87%
    09:00 -5°C° 0 mm 5 mps 761 mmHg 85%
    10:00 -4°C° 0 mm 5 mps 760 mmHg 83%
    11:00 -4°C° 0 mm 5 mps 760 mmHg 81%
    12:00 -4°C° 0 mm 5 mps 760 mmHg 79%
    13:00 -3°C° 0 mm 6 mps 759 mmHg 78%
    14:00 -4°C° 0 mm 5 mps 759 mmHg 79%
    15:00 -5°C° 0 mm 5 mps 758 mmHg 80%
    16:00 -5°C° 0 mm 5 mps 758 mmHg 82%
    17:00 -5°C° 0 mm 5 mps 758 mmHg 82%
    18:00 -5°C° 0 mm 5 mps 758 mmHg 82%
    19:00 -5°C° 0 mm 5 mps 757 mmHg 83%
    20:00 -5°C° 0 mm 5 mps 757 mmHg 83%
    21:00 -5°C° 0 mm 5 mps 757 mmHg 83%
    22:00 -5°C° 0 mm 5 mps 757 mmHg 83%
    23:00 -5°C° 0 mm 5 mps 757 mmHg 83%

    Tomorrow, 20 December, Thursday

    Time Temperature Precipitation Wind Pressure Humidity
    00:00 -4°C° 0 mm 4 mps 756 mmHg 83%
    01:00 -4°C° 0 mm 4 mps 756 mmHg 83%
    02:00 -4°C° 0 mm 4 mps 756 mmHg 84%
    03:00 -4°C° 0 mm 4 mps 756 mmHg 84%
    04:00 -4°C° 0 mm 4 mps 756 mmHg 84%
    05:00 -4°C° 0 mm 4 mps 756 mmHg 84%
    06:00 -4°C° 0 mm 4 mps 756 mmHg 84%
    07:00 -4°C° 0 mm 3 mps 755 mmHg 85%
    08:00 -2°C° 0 mm 3 mps 755 mmHg 83%
    09:00 -2°C° 0 mm 3 mps 755 mmHg 82%
    10:00 -1°C° 0 mm 3 mps 755 mmHg 80%
    11:00 -1°C° 0 mm 3 mps 755 mmHg 79%
    12:00 -1°C° 0 mm 3 mps 755 mmHg 78%
    13:00 -1°C° 0 mm 3 mps 755 mmHg 77%
    14:00 -1°C° 0 mm 3 mps 755 mmHg 80%
    15:00 -2°C° 0 mm 3 mps 755 mmHg 82%
    16:00 -2°C° 0 mm 2 mps 755 mmHg 85%
    17:00 -2°C° 0.1 mm 3 mps 755 mmHg 87%
    18:00 -2°C° 0.1 mm 3 mps 755 mmHg 88%
    19:00 -2°C° 0.1 mm 3 mps 755 mmHg 90%
    20:00 -2°C° 0.2 mm 3 mps 754 mmHg 91%
    21:00 -1°C° 0.2 mm 3 mps 754 mmHg 93%
    22:00 -1°C° 0.2 mm 3 mps 754 mmHg 94%
    23:00 -1°C° 0.1 mm 3 mps 754 mmHg 94%

    Day after tomorrow, 21 December, Friday

    Time Temperature Precipitation Wind Pressure Humidity
    00:00 -1°C° 0.1 mm 3 mps 754 mmHg 94%
    01:00 0°C° 0.1 mm 3 mps 754 mmHg 95%
    02:00 0°C° 0 mm 3 mps 754 mmHg 94%
    03:00 0°C° 0 mm 3 mps 753 mmHg 94%
    04:00 0°C° 0 mm 3 mps 753 mmHg 93%
    05:00 0°C° 0 mm 3 mps 753 mmHg 93%
    06:00 0°C° 0 mm 3 mps 753 mmHg 94%
    07:00 0°C° 0 mm 3 mps 752 mmHg 94%
    08:00 -1°C° 0 mm 4 mps 752 mmHg 94%
    09:00 0°C° 0 mm 4 mps 752 mmHg 93%
    10:00 0°C° 0 mm 4 mps 752 mmHg 93%
    11:00 0°C° 0 mm 4 mps 751 mmHg 93%
    12:00 0°C° 0 mm 4 mps 751 mmHg 93%
    13:00 0°C° 0 mm 4 mps 750 mmHg 93%
    14:00 0°C° 0 mm 4 mps 749 mmHg 93%
    15:00 0°C° 0 mm 4 mps 749 mmHg 93%
    16:00 -1°C° 0 mm 4 mps 748 mmHg 92%
    17:00 -1°C° 0.1 mm 4 mps 748 mmHg 92%
    18:00 -1°C° 0.1 mm 4 mps 747 mmHg 92%
    19:00 -1°C° 0.1 mm 4 mps 746 mmHg 92%
    20:00 -1°C° 0.2 mm 4 mps 745 mmHg 93%
    21:00 0°C° 0.2 mm 4 mps 745 mmHg 93%
    22:00 0°C° 0.2 mm 4 mps 744 mmHg 93%
    23:00 0°C° 1.5 mm 4 mps 743 mmHg 94%

    22 December, Saturday

    Time Temperature Precipitation Wind Pressure Humidity
    00:00 0°C° 1.5 mm 5 mps 742 mmHg 94%
    01:00 +1°C° 1.5 mm 5 mps 741 mmHg 95%
    02:00 +1°C° 0.5 mm 6 mps 741 mmHg 92%
    03:00 +2°C° 0.5 mm 6 mps 741 mmHg 89%
    04:00 +3°C° 0.5 mm 7 mps 740 mmHg 86%
    05:00 +3°C° 0.1 mm 7 mps 741 mmHg 85%
    06:00 +3°C° 0.1 mm 7 mps 741 mmHg 85%
    07:00 +2°C° 0.1 mm 7 mps 741 mmHg 85%
    08:00 +3°C° 0.1 mm 7 mps 741 mmHg 86%
    09:00 +3°C° 0.1 mm 7 mps 742 mmHg 87%
    10:00 +3°C° 0.1 mm 7 mps 742 mmHg 89%
    11:00 +3°C° 0.1 mm 7 mps 742 mmHg 88%
    12:00 +4°C° 0.1 mm 7 mps 742 mmHg 88%
    13:00 +4°C° 0.1 mm 7 mps 741 mmHg 87%
    14:00 +4°C° 0.1 mm 6 mps 741 mmHg 89%
    15:00 +3°C° 0.1 mm 5 mps 741 mmHg 90%
    16:00 +3°C° 0.1 mm 5 mps 741 mmHg 91%
    17:00 +3°C° 0.1 mm 5 mps 741 mmHg 90%
    18:00 +3°C° 0.1 mm 6 mps 742 mmHg 89%
    19:00 +3°C° 0.1 mm 6 mps 742 mmHg 88%
    20:00 +3°C° 0.4 mm 6 mps 743 mmHg 89%
    21:00 +3°C° 0.4 mm 7 mps 743 mmHg 89%
    22:00 +2°C° 0.4 mm 7 mps 744 mmHg 89%
    23:00 +2°C° 0.2 mm 7 mps 745 mmHg 88%

    23 December, Sunday

    Time Temperature Precipitation Wind Pressure Humidity
    00:00 0°C° 0.2 mm 7 mps 746 mmHg 87%
    01:00 -1°C° 0.2 mm 7 mps 747 mmHg 85%
    02:00 -1°C° 0.1 mm 6 mps 748 mmHg 87%
    03:00 -1°C° 0.1 mm 6 mps 749 mmHg 88%
    04:00 0°C° 0.1 mm 5 mps 751 mmHg 90%
    05:00 0°C° 0 mm 4 mps 751 mmHg 91%
    06:00 -1°C° 0 mm 4 mps 752 mmHg 93%
    07:00 0°C° 0 mm 3 mps 752 mmHg 94%
    08:00 0°C° 0 mm 3 mps 753 mmHg 93%
    09:00 +1°C° 0 mm 2 mps 753 mmHg 92%
    10:00 +1°C° 0 mm 2 mps 754 mmHg 91%
    11:00 +2°C° 0 mm 2 mps 754 mmHg 89%
    12:00 +2°C° 0 mm 2 mps 754 mmHg 87%
    13:00 +4°C° 0 mm 1 mps 754 mmHg 85%
    14:00 +3°C° 0.1 mm 1 mps 754 mmHg 87%
    15:00 +3°C° 0.1 mm 1 mps 754 mmHg 90%
    16:00 +1°C° 0.1 mm 2 mps 754 mmHg 92%
    17:00 +2°C° 0.5 mm 2 mps 754 mmHg 92%
    18:00 +1°C° 0.5 mm 3 mps 754 mmHg 92%
    19:00 +1°C° 0.5 mm 3 mps 754 mmHg 93%
    20:00 0°C° 0.3 mm 4 mps 754 mmHg 93%
    21:00 +1°C° 0.3 mm 4 mps 753 mmHg 92%
    22:00 +1°C° 0.3 mm 4 mps 753 mmHg 92%
    23:00 +1°C° 0.5 mm 5 mps 753 mmHg 91%

    24 December, Monday

    Time Temperature Precipitation Wind Pressure Humidity
    00:00 +1°C° 0.5 mm 5 mps 753 mmHg 91%
    01:00 +1°C° 0.5 mm 5 mps 753 mmHg 90%
    02:00 +1°C° 0.4 mm 5 mps 752 mmHg 90%
    03:00 +1°C° 0.4 mm 5 mps 752 mmHg 90%
    04:00 +2°C° 0.4 mm 5 mps 752 mmHg 90%
    05:00 +2°C° 0.2 mm 5 mps 752 mmHg 89%
    06:00 +2°C° 0.2 mm 5 mps 753 mmHg 89%
    07:00 +2°C° 0.2 mm 5 mps 753 mmHg 88%
    08:00 +1°C° 0.1 mm 6 mps 753 mmHg 88%
    09:00 +1°C° 0.1 mm 6 mps 754 mmHg 87%
    10:00 0°C° 0.1 mm 7 mps 755 mmHg 87%
    11:00 +1°C° 0 mm 6 mps 756 mmHg 84%
    12:00 +1°C° 0 mm 6 mps 756 mmHg 82%
    13:00 +1°C° 0 mm 5 mps 757 mmHg 79%
    14:00 +1°C° 0 mm 5 mps 757 mmHg 81%
    15:00 +1°C° 0 mm 4 mps 758 mmHg 83%
    16:00 +1°C° 0 mm 3 mps 758 mmHg 85%
    17:00 +1°C° 0.1 mm 3 mps 759 mmHg 86%
    18:00 0°C° 0.1 mm 4 mps 759 mmHg 87%
    19:00 0°C° 0.1 mm 4 mps 759 mmHg 89%
    20:00 0°C° 0.1 mm 4 mps 760 mmHg 89%
    21:00 0°C° 0.1 mm 4 mps 760 mmHg 89%
    22:00 0°C° 0.1 mm 3 mps 760 mmHg 90%
    23:00 0°C° 0 mm 3 mps 760 mmHg 88%
    Show more